Home > Weather > Barra do Garças > Past weeks

Flag for Brazil Weather for the Past 2 Weeks in Barra do Garças, Mato Grosso, Brazil

Now
59 °F

Sunny.


Feels Like: 59 °F
Forecast: 59 / 93 °F
Wind: 2 mph from Southeast

Location: Goiania Aeroporto

Current Time: May 2, 2016 at 8:10:55 AM

Latest Report: May 2, 2016 at 7:00 AM


Visibility: 10 mi

Pressure: 30.09 "Hg

Humidity: 82%

Dew Point: 54 °F

Location of Barra do GarçasLocation

Historic Weather in Barra do Garças — Graph

°F

Barra do Garças Temperature Yesterday

Maximum temperature yesterday: 84 °F (at 3:00 PM)
Minimum temperature yesterday: 59 °F (at 6:00 AM)
Average temperature yesterday: 71 °F

High & Low Weather Summary for the Past Weeks

 TemperatureHumidityPressure
High91 °F (Apr 23, 4:00 PM)88% (Apr 25, 6:00 AM)30.15 "Hg (Apr 25, 6:00 AM)
Low59 °F (Apr 28, 5:00 AM)24% (Apr 22, 11:00 AM)29.86 "Hg (Apr 25, 5:00 PM)
Average75 °F55%30.04 "Hg
* Reported Apr 17 7:00 AM — May 2 7:00 AM, Barra do Garças, Weather by CustomWeather, © 2016

Note: Actual official high and low records may vary slightly from our data, if they occured in-between our weather recording intervals... More about our weather records

Advertising

Barra do Garças Weather History for the Previous 24 Hours

Scroll right to see more
 ConditionsComfort  
Time TempWeatherWind HumidityBarometerVisibility
7:00 AM
Mon, May 2
59 °FSunny.2 mph82%30.09 "Hg10 mi
6:00 AM59 °FClear.3 mph82%30.07 "Hg10 mi
5:00 AM59 °FClear.5 mph82%30.07 "Hg10 mi
4:00 AM61 °FClear.No wind77%30.07 "Hg10 mi
3:00 AM63 °FClear.1 mph73%30.07 "Hg10 mi
2:00 AM63 °FClear.2 mph73%30.07 "Hg10 mi
1:00 AM66 °FClear.No wind64%30.07 "Hg10 mi
12:00 AM66 °FClear.3 mph64%30.09 "Hg10 mi
11:00 PM
Sun, May 1
66 °FClear.3 mph64%30.09 "Hg10 mi
10:00 PM70 °FClear.6 mph57%30.09 "Hg10 mi
9:00 PM72 °FClear.5 mph53%30.09 "Hg10 mi
8:00 PM73 °FClear.6 mph50%30.07 "Hg10 mi
7:00 PM77 °FClear.5 mph42%30.04 "Hg10 mi
6:00 PM81 °FClear.8 mph34%30.04 "Hg10 mi
5:00 PM82 °FSunny.7 mph30%30.04 "Hg10 mi
4:00 PM84 °FSunny.2 mph29%30.01 "Hg10 mi
3:00 PM84 °FSunny.2 mph29%30.01 "Hg10 mi
2:00 PM82 °FPassing clouds.6 mph32%30.04 "HgN/A
1:00 PM81 °FSunny.7 mph34%30.07 "Hg10 mi
12:00 PM77 °FPassing clouds.6 mph39%30.12 "HgN/A
11:00 AM75 °FSunny.7 mph41%30.12 "Hg10 mi
10:00 AM70 °FSunny.9 mph53%30.15 "Hg10 mi
9:00 AM66 °FSunny.6 mph64%30.15 "Hg10 mi
8:00 AM61 °FSunny.6 mph77%30.12 "Hg10 mi
Weather by CustomWeather, © 2016

See weather overviewHow to use our weather pages